Reflectivity
-20 -20 -20 -20 -20 -20 -20 -20 -20 -20 -20 -20 -20 -20 -20 -20 -20 -20 -20 -20 -20 -20 -20 -20 -20 -20 -20 -20 -20 -20 -20 -20 -20 -20 -20 -20 -20 -20 -20 -20 -20 -20 -20
-20 -20 -20 -20 -20 -20 -20 -20 -20 -20 -20 -20 -20 -20 -20 -20 -20 -20 -20 -20 -20 -20 -20 -20 -20 -20 -20 -20 -20 -20 -20 -20 -20 -20 -20 -20 -20 -20 -20 -20 -20 -20 -20
-20 -20 -20 -20 -20 -20 -20 -20 -20 -20 -20 -20 -20 -20 -20 -20 -20 -20 -20 -20 -20 -20 -20 -20 -20 -20 -20 -20 -20 -20 -20 -20 -20 -20 -20 -20 -20 -20 -20 -20 -20 -20 -20
-20 -20 -20 -20 -20 -20 -20 -20 -20 -20 -20 -20 -20 -20 -20 -20 -20 -20 -20 -20 -20 -20 -20 -20 -20 -20 -20 -20 -20 -20 -20 -20 -20 -20 -20 -20 -20 -20 -20 -20 -20 -20 -20
-20 -20 -20 -20 -20 -20 -20 -20 -20 -20 -20 -20 -20 -20 -20 -20 -20 -20 -20 -20 -20 -20 -20 -20 -20 -20 -20 -20 -20 -20 -20 -20 -20 -20 -20 -20 -20 -20 -20 -20 -20 -20 -20
-20 -20 -20 -20 -20 -20 -20 -20 -20 -20 -20 -20 -20 -20 -20 -20 -20 -20 -20 -20 -20 -20 -20 -20 -20 -20 -20 -20 -20 -20 -20 -20 -20 -20 -20 -20 -20 -20 -20 -20 -20 -20 -20
-20 -20 -20 -20 -20 -20 -20 -20 -20 -20 -20 -20 -20 -20 -20 -20 -20 -20 -20 -20 -20 -20 -20 -20 -20 -20 -20 -20 -20 -20 -20 -20 -20 -20 -20 -20 -20 -20 -20 -20 -20 -13 17
-20 -20 -20 -20 -20 -20 -20 -20 -20 -20 -20 -20 -20 -20 -20 -20 -20 -20 -20 -20 -20 -20 -20 -20 -20 -20 -20 -20 -20 -20 -20 -20 -20 -20 -20 -7 -20 -20 -15 -20 -17 12 15
-20 -20 -20 -20 -20 -20 -20 -20 -20 -20 -20 -20 -20 -20 -20 -20 -20 -20 -20 -20 -20 -20 -20 -20 -20 -20 -20 -20 -20 -20 -20 -20 -20 -20 -20 -12 -1 -20 -1 -3 -20 -12 16
-20 -20 -20 -20 -20 -20 -20 -20 -20 -20 -20 -20 -20 -20 -20 -20 -20 -20 -20 -20 -20 -20 -20 -20 -20 -20 -20 -20 -20 -20 -20 -20 -20 -20 -20 -4 1 1 -16 -3 -17 -5 21
-20 -20 -20 -20 -20 -20 -20 -20 -20 -20 -20 -20 -20 -20 -20 -20 -20 -20 -20 -20 -20 -20 -20 -20 -20 -20 -20 -20 -20 -20 -20 -20 -20 -20 -20 -20 -8 3 -17 -2 15 13 15
-20 -20 -20 -20 -20 -20 -20 -20 -20 -20 -20 -20 -20 -20 -20 -20 -20 -20 -20 -20 -20 -20 -20 -20 -20 -20 -20 -20 -20 -20 -20 -20 -20 -20 -20 -20 0 2 -20 -3 9 -2 11
-20 -20 -20 -20 -20 -20 -20 -20 -20 -20 -20 -20 -20 -20 -20 -20 -20 -20 -20 -20 -20 -20 -20 -20 -20 -20 -20 -20 -20 -20 -20 -20 -20 -20 -20 -20 -5 -5 -12 -18 2 -20 -0
-20 -20 -20 -20 -20 -20 -20 -20 -20 -20 -20 -20 -20 -20 -20 -20 -20 -20 -20 -20 -20 -20 -20 -20 -20 -20 -20 -20 -20 -20 -20 -20 -20 -20 -20 -20 -17 -18 -20 -20 -20 -15 9
-20 -20 -20 -20 -20 -20 -20 -20 -20 -20 -20 -20 -20 -20 -20 -20 -20 -20 -20 -20 -20 -20 -20 -20 -20 -20 -20 -20 -20 -20 -20 -20 -20 -20 -20 -20 -20 -20 -20 -18 -20 -20 3
-20 -20 -20 -20 -20 -20 -20 -20 -20 -20 -20 -20 -20 -20 -20 -20 -20 -20 -20 -20 -20 -20 -20 -20 -20 -20 -20 -20 -20 -20 -20 -20 -20 -20 -20 -20 -20 -20 -20 -20 -20 -20 4
-20 -20 -20 -20 -20 -20 -20 -20 -20 -20 -20 -20 -20 -20 -20 -20 -20 -20 -20 -20 -20 -20 -20 -20 -20 -20 -20 -20 -20 -20 -20 -20 -20 -20 -20 -20 -20 -20 -20 -20 -20 -17 -3
-20 -20 -20 -20 -20 -20 -20 -20 -20 -20 -20 -20 -20 -20 -20 -20 -20 -20 -20 -20 -20 -20 -20 -20 -20 -20 -20 -20 -20 -20 -20 -20 -20 -20 -20 -20 -20 -20 -20 -20 -20 -20 -19
-20 -20 -20 -20 -20 -20 -20 -20 -20 -20 -20 -20 -20 -20 -20 -20 -20 -20 -20 -20 -20 -20 -20 -20 -20 -20 -20 -20 -20 -20 -20 -20 -20 -20 -20 -20 -20 -20 -20 -20 -20 -20 -20
-20 -20 -20 -20 -20 -20 -20 -20 -20 -20 -20 -20 -20 -20 -20 -20 -20 -20 -20 -20 -20 -20 -20 -20 -20 -20 -20 -20 -20 -20 -20 -20 -20 -20 -20 -20 -20 -20 -20 -20 -20 -20 -20
-20 -20 -20 -20 -20 -20 -20 -20 -20 -20 -20 -20 -20 -20 -20 -20 -20 -20 -20 -20 -20 -20 -20 -20 -20 -20 -20 -20 -20 -20 -20 -20 -20 -20 -20 -20 -20 -20 -20 -20 -20 -20 -20
-20 -20 -20 -20 -20 -20 -20 -20 -20 -20 -20 -20 -20 -20 -20 -17 -20 -20 -20 -20 -20 -20 -20 -20 -20 -20 -20 -20 -20 -20 -20 -20 -20 -20 -20 -20 -20 -20 -20 -20 -20 -20 -20
-20 -20 -20 -20 -20 -20 -20 -20 -20 -20 -20 -20 -20 -20 -20 -20 -20 -20 -20 -20 -20 -20 -20 -20 -20 -20 -20 -20 -20 -20 -20 -20 -20 -20 -20 -20 -20 -20 -20 -20 -20 -20 -20
-20 -20 -20 -20 -20 -20 -20 -20 -20 -20 -20 -20 -20 -20 -20 -20 -20 -20 -20 -20 -20 -20 -20 -20 -20 -20 -20 -20 -20 -20 -20 -20 -20 -20 -20 -20 -20 -20 -20 -20 -20 -20 -20
-20 -20 -20 -20 -20 -20 -20 -20 -20 -20 -20 -17 -19 -20 -20 -20 -20 -20 -20 -20 -20 -20 -20 -20 -20 -20 -20 -20 -20 -20 -20 -20 -20 -20 -20 -20 -20 -20 -20 -20 -20 -20 -20
-20 -20 -20 -20 0 -20 -20 -20 -20 0 -20 -16 -20 -20 -20 -20 -20 -20 -20 -20 -20 -20 -20 -20 -20 -20 -20 -20 -20 -20 -20 -20 -20 -20 -20 -20 -20 -15 -1 -20 -20 -20 -20
Wind_Speed
6 5 5 5 4 4 4 4 4 4 5 5 5 6 7 5 6 4 2 7 8 8 9 11 12 13 13 13 13 13 14 14 15 15 15 15 15 16 16 15 15 16 15
5 5 5 5 4 4 4 5 4 4 4 5 5 6 5 4 4 5 3 2 5 5 7 9 11 11 12 12 13 14 14 14 15 15 15 16 16 16 16 16 16 16 16
6 6 5 5 5 4 7 5 4 3 4 4 5 5 4 3 3 3 3 3 2 2 4 5 9 11 11 12 13 13 13 13 14 15 15 16 17 17 17 17 17 17 17
8 7 5 5 5 5 5 5 3 2 3 4 3 3 4 3 3 3 3 2 2 1 2 6 8 11 10 11 12 13 13 13 14 15 15 16 16 17 18 18 18 18 18
8 7 5 5 7 5 4 4 2 3 3 3 3 4 3 3 4 3 4 2 3 0 1 5 8 10 11 12 13 13 13 14 15 16 16 17 18 18 18 19 19 20 21
9 7 5 6 6 5 4 4 3 3 3 2 2 3 3 2 2 2 4 3 3 2 1 2 3 4 11 12 14 14 14 14 15 16 18 18 19 19 20 21 21 22 22
8 8 6 6 6 6 6 6 4 5 3 2 3 2 1 3 4 4 4 4 3 2 1 2 2 2 3 11 13 14 15 15 15 17 19 20 20 21 22 23 23 23 24
8 9 8 6 7 6 7 6 5 3 3 2 3 3 1 4 3 3 3 2 2 1 2 2 2 4 3 2 6 14 15 16 17 19 20 21 22 23 24 24 24 24 26
8 9 9 7 7 6 5 6 5 6 4 2 4 4 2 2 2 1 3 3 4 3 4 3 3 3 4 3 6 8 14 17 18 20 23 23 24 25 25 26 26 26 26
9 10 9 8 7 5 6 5 4 3 5 5 3 3 4 4 2 4 2 3 4 5 5 3 3 4 4 3 6 10 16 17 20 22 24 26 27 27 27 27 28 29 28
10 9 9 9 8 5 6 7 6 5 3 5 4 3 2 2 3 2 4 3 2 4 2 3 3 4 4 3 3 7 15 19 21 23 26 27 27 28 29 29 29 30 30
9 8 9 9 8 7 7 7 7 7 5 5 4 4 4 3 3 2 2 3 3 5 3 4 4 4 4 3 5 12 17 20 24 26 26 27 28 29 30 30 31 32 32
11 12 12 10 8 7 7 7 7 7 6 6 6 4 3 3 3 3 1 3 3 3 4 3 3 2 2 1 4 15 18 21 24 26 27 28 29 30 30 31 32 33 33
13 15 12 11 10 10 9 8 5 5 6 6 8 6 4 3 3 3 2 1 3 3 3 5 2 1 2 3 11 19 9 22 25 26 28 30 30 30 31 32 32 33 33
13 16 15 14 12 11 10 9 7 7 6 6 6 7 4 3 4 3 3 3 4 2 4 4 3 2 8 7 9 12 11 18 27 28 29 30 30 30 32 33 34 35 35
17 18 17 15 14 13 12 10 7 7 7 5 5 7 5 3 4 3 3 3 3 4 4 3 4 10 9 10 13 14 13 24 24 27 29 29 30 32 33 33 34 36 36
18 19 19 17 17 15 13 11 9 9 8 7 6 7 7 6 4 3 3 3 3 4 7 9 6 9 10 13 13 11 12 12 11 24 29 31 32 33 34 34 34 35 35
17 19 18 17 16 16 15 13 12 11 10 9 8 7 7 4 5 4 3 5 4 5 5 13 9 9 11 12 12 14 11 11 11 19 27 33 33 33 34 34 34 34 35
17 17 18 18 17 16 16 13 11 11 8 8 8 8 7 6 4 3 4 4 3 4 4 7 11 9 9 10 12 11 12 12 10 22 27 32 31 31 33 33 34 33 34
17 17 16 16 16 15 14 13 11 10 9 8 8 7 7 7 6 4 3 3 3 4 4 6 8 11 10 11 8 12 12 10 13 13 20 26 28 28 29 34 34 33 33
15 16 15 13 13 13 11 13 13 11 10 8 7 7 6 6 6 5 2 3 4 4 4 7 9 10 11 11 12 11 13 15 13 14 13 10 13 12 13 22 25 30 32
15 14 14 15 14 10 23 24 16 11 9 9 8 6 6 8 6 7 9 11 9 4 5 4 8 10 11 11 11 12 14 15 17 4 17 16 11 12 13 13 27 34 37
13 13 13 14 14 11 26 25 22 9 9 8 8 6 5 4 7 4 6 10 11 15 16 11 9 9 11 12 14 15 15 15 15 13 17 20 13 16 13 16 31 36 38
12 11 11 11 12 11 25 24 22 10 8 7 7 6 6 5 3 3 2 5 5 6 7 6 6 8 10 13 13 13 17 18 14 10 12 18 15 17 15 16 36 39 38
11 11 11 13 14 13 25 25 17 10 8 8 6 6 5 5 2 3 3 4 6 6 9 15 19 22 23 24 22 13 12 14 19 13 10 13 12 18 16 17 18 32 34
11 10 11 12 17 14 24 24 15 8 9 6 5 5 6 6 4 4 3 3 5 7 6 9 9 11 13 14 24 12 12 14 15 19 7 14 16 14 16 14 14 17 15
Wind_Direction
145 148 148 139 137 130 119 111 117 105 94 75 50 63 72 66 81 108 90 73 67 61 55 48 39 33 28 22 17 11 7 4 1 360 357 353 352 351 349 346 343 339 336
145 149 139 125 124 117 108 108 115 108 113 113 91 75 71 69 68 105 136 87 90 65 42 37 28 22 20 17 12 5 2 359 358 354 352 351 348 345 344 342 338 334 331
145 138 127 131 131 120 107 100 101 120 125 114 120 104 93 97 108 101 93 165 170 94 45 22 7 8 12 11 4 357 356 355 351 347 349 345 344 342 338 335 331 328 324
146 138 141 139 136 138 138 130 145 134 118 105 129 137 125 134 122 141 121 11 46 4 301 351 357 356 1 1 355 350 348 348 343 344 342 341 337 334 331 327 324 319 315
149 146 147 148 147 142 138 131 119 147 119 101 105 121 113 145 169 172 178 229 177 206 322 348 355 350 347 351 349 343 339 339 338 339 337 335 332 329 324 320 316 314 311
156 144 137 148 139 136 132 120 135 69 111 121 88 111 133 150 148 205 204 205 198 195 240 15 341 325 344 342 342 336 333 331 332 331 331 329 326 322 319 315 314 311 308
152 138 146 152 141 141 156 143 149 124 44 32 85 59 46 176 199 221 198 211 199 192 284 312 302 335 338 335 334 325 323 324 325 327 326 324 321 318 316 313 309 311 307
151 147 156 153 152 146 141 142 148 119 112 33 112 101 79 334 291 222 198 191 166 220 289 293 333 324 320 298 309 324 323 321 319 319 319 318 317 315 311 308 306 308 303
156 145 155 151 156 138 145 161 158 144 142 62 70 132 99 213 326 321 234 220 194 229 254 251 278 290 299 310 319 313 312 311 311 313 316 316 315 311 308 306 304 302 302
160 159 151 153 149 141 153 151 155 157 125 135 84 70 87 128 141 323 298 234 216 237 250 237 248 274 286 281 288 303 310 310 309 312 313 313 312 310 309 307 306 303 301
169 160 152 153 148 145 151 143 145 147 124 138 129 140 106 88 97 145 291 309 317 261 235 246 238 252 259 272 280 285 303 311 311 310 308 309 309 307 306 306 305 300 295
166 161 155 155 147 150 156 150 150 146 140 122 119 121 142 152 163 173 264 287 255 278 271 275 259 242 240 246 276 306 307 306 306 307 306 305 305 305 305 303 299 299 297
174 175 164 156 155 149 150 147 148 150 154 142 138 146 133 133 117 118 123 277 285 306 296 267 235 222 224 5 316 309 303 304 305 304 305 304 306 306 303 301 300 297 294
174 166 164 154 153 153 152 147 146 149 155 148 147 132 141 152 128 136 161 114 324 309 295 248 287 117 60 321 308 309 301 297 302 305 305 304 304 302 301 300 298 295 294
168 164 162 159 156 156 154 152 157 160 159 155 150 143 139 161 143 148 153 164 153 300 298 298 301 299 331 307 299 306 295 295 305 306 306 302 301 302 302 302 300 298 294
168 165 163 164 160 159 156 154 162 162 160 163 153 148 153 159 156 162 174 192 195 187 245 263 288 307 307 306 303 304 294 295 298 300 301 302 305 304 301 301 300 298 296
169 170 168 166 164 163 161 162 166 164 167 161 143 147 164 164 167 176 191 206 224 215 253 278 278 300 301 305 299 294 295 295 295 303 304 304 305 304 301 299 298 298 295
172 169 168 168 165 166 162 169 168 172 171 163 150 145 170 168 175 193 206 233 238 243 255 283 291 303 296 294 298 299 299 298 300 301 301 302 301 300 298 298 299 297 299
169 169 170 170 169 168 164 166 167 164 168 155 152 160 170 173 181 196 219 237 256 281 286 289 294 299 301 304 302 300 307 302 299 304 300 297 297 297 298 301 300 298 297
167 170 172 170 169 166 164 159 155 156 162 156 156 158 166 171 178 202 230 250 270 278 273 285 296 300 299 307 304 313 310 311 307 302 294 294 298 298 300 300 297 295 295
168 168 164 164 164 163 162 155 154 163 158 150 148 154 159 165 193 206 221 258 272 273 277 284 292 299 307 315 318 318 308 307 312 303 297 299 300 293 291 294 292 293 290
166 166 164 158 158 165 171 162 155 154 150 150 154 164 163 181 205 238 256 271 269 260 273 278 292 297 301 310 312 309 306 314 313 280 310 303 301 297 296 291 293 296 295
158 161 158 155 155 157 167 165 159 150 150 152 153 153 151 154 186 189 264 284 292 292 295 300 294 295 303 309 304 306 303 301 297 307 302 298 310 299 300 293 296 293 292
151 146 144 141 140 156 165 161 156 144 139 144 141 139 147 159 171 204 250 286 281 277 277 285 283 289 294 304 301 306 303 297 289 294 286 290 307 296 300 295 295 292 292
135 143 141 141 146 158 163 156 148 141 137 137 138 147 149 140 185 252 288 294 292 290 298 304 303 305 309 309 308 307 303 310 303 300 294 285 297 299 298 292 289 293 295
142 140 140 147 154 154 161 160 144 139 140 136 132 148 181 161 200 264 307 299 294 289 286 298 308 305 306 298 300 297 299 295 296 303 295 305 305 310 304 290 288 294 284